Time,TemperatureF,DewpointF,PressureIn,WindDirection,WindDirectionDegrees,WindSpeedMPH,WindSpeedGustMPH,Humidity,HourlyPrecipIn,Conditions,Clouds,dailyrainin,SoftwareType,DateUTC
2013-01-19 00:00:00,42.4,35.0,30.46,NE,43,12.0,18.0,75,0.00,,,0.00,Wunderground v.1.15,2013-01-19 05:00:00,
2013-01-19 00:03:00,42.4,35.0,30.45,NE,38,11.0,15.0,75,0.00,,,0.00,Wunderground v.1.15,2013-01-19 05:03:00,
2013-01-19 00:08:00,42.5,35.5,30.45,NE,42,13.0,19.0,76,0.00,,,0.00,Wunderground v.1.15,2013-01-19 05:08:00,
2013-01-19 00:13:00,42.5,35.5,30.45,ENE,59,13.0,15.0,76,0.00,,,0.00,Wunderground v.1.15,2013-01-19 05:13:00,
2013-01-19 00:18:00,42.5,35.5,30.45,NE,47,15.0,20.0,76,0.00,,,0.00,Wunderground v.1.15,2013-01-19 05:18:00,
2013-01-19 00:23:00,42.4,35.4,30.45,NE,53,13.0,17.0,76,0.00,,,0.00,Wunderground v.1.15,2013-01-19 05:23:00,
2013-01-19 00:28:00,42.4,35.4,30.45,NE,46,11.0,17.0,76,0.00,,,0.00,Wunderground v.1.15,2013-01-19 05:28:00,
2013-01-19 00:33:00,42.4,35.4,30.45,NE,55,15.0,17.0,76,0.00,,,0.00,Wunderground v.1.15,2013-01-19 05:33:00,
2013-01-19 00:38:00,42.4,35.4,30.44,NNE,32,10.0,17.0,76,0.00,,,0.00,Wunderground v.1.15,2013-01-19 05:38:00,
2013-01-19 00:43:00,42.4,35.7,30.44,NE,36,15.0,15.0,77,0.00,,,0.00,Wunderground v.1.15,2013-01-19 05:43:00,
2013-01-19 00:48:00,42.5,35.8,30.44,NE,37,11.0,16.0,77,0.00,,,0.00,Wunderground v.1.15,2013-01-19 05:48:00,
2013-01-19 00:53:00,42.4,35.7,30.44,NE,36,9.0,17.0,77,0.00,,,0.00,Wunderground v.1.15,2013-01-19 05:53:00,
2013-01-19 00:58:00,42.4,35.7,30.44,NNE,23,13.0,17.0,77,0.00,,,0.00,Wunderground v.1.15,2013-01-19 05:58:00,
2013-01-19 01:03:00,42.4,35.7,30.45,NE,34,14.0,16.0,77,0.00,,,0.00,Wunderground v.1.15,2013-01-19 06:03:00,
2013-01-19 01:08:00,42.4,35.7,30.45,NE,38,13.0,16.0,77,0.00,,,0.00,Wunderground v.1.15,2013-01-19 06:08:00,
2013-01-19 01:13:00,42.4,35.7,30.45,NNE,27,11.0,15.0,77,0.00,,,0.00,Wunderground v.1.15,2013-01-19 06:13:00,
2013-01-19 01:18:00,42.4,35.7,30.45,NE,42,7.0,16.0,77,0.00,,,0.00,Wunderground v.1.15,2013-01-19 06:18:00,
2013-01-19 01:23:00,42.4,35.7,30.45,NNE,32,12.0,17.0,77,0.00,,,0.00,Wunderground v.1.15,2013-01-19 06:23:00,
2013-01-19 01:28:00,42.4,35.7,30.45,NE,35,11.0,17.0,77,0.00,,,0.00,Wunderground v.1.15,2013-01-19 06:28:00,
2013-01-19 01:33:00,42.5,36.1,30.45,NNE,26,10.0,13.0,78,0.00,,,0.00,Wunderground v.1.15,2013-01-19 06:33:00,
2013-01-19 01:38:00,42.5,35.8,30.45,NE,36,10.0,14.0,77,0.00,,,0.00,Wunderground v.1.15,2013-01-19 06:38:00,
2013-01-19 01:43:00,42.4,36.0,30.45,NE,34,12.0,15.0,78,0.00,,,0.00,Wunderground v.1.15,2013-01-19 06:43:00,
2013-01-19 01:48:00,42.4,36.0,30.45,NNE,28,12.0,16.0,78,0.00,,,0.00,Wunderground v.1.15,2013-01-19 06:48:00,
2013-01-19 01:53:00,42.4,36.0,30.46,NNE,26,9.0,13.0,78,0.00,,,0.00,Wunderground v.1.15,2013-01-19 06:53:00,
2013-01-19 01:58:00,42.5,36.1,30.45,NE,37,11.0,16.0,78,0.00,,,0.00,Wunderground v.1.15,2013-01-19 06:58:00,
2013-01-19 02:03:00,42.5,36.1,30.45,NE,46,9.0,14.0,78,0.00,,,0.00,Wunderground v.1.15,2013-01-19 07:03:00,
2013-01-19 02:08:00,42.4,36.0,30.45,NE,34,12.0,17.0,78,0.00,,,0.00,Wunderground v.1.15,2013-01-19 07:08:00,
2013-01-19 02:13:00,42.4,36.0,30.45,NNE,32,12.0,14.0,78,0.00,,,0.00,Wunderground v.1.15,2013-01-19 07:13:00,
2013-01-19 02:18:00,42.4,36.0,30.45,NNE,30,12.0,18.0,78,0.00,,,0.00,Wunderground v.1.15,2013-01-19 07:18:00,
2013-01-19 02:23:00,42.4,36.0,30.45,NNE,26,17.0,17.0,78,0.00,,,0.00,Wunderground v.1.15,2013-01-19 07:23:00,
2013-01-19 02:28:00,42.4,36.3,30.45,NE,44,11.0,17.0,79,0.00,,,0.00,Wunderground v.1.15,2013-01-19 07:28:00,
2013-01-19 02:33:00,42.4,36.3,30.44,NNE,32,14.0,15.0,79,0.00,,,0.00,Wunderground v.1.15,2013-01-19 07:33:00,
2013-01-19 02:38:00,42.4,36.7,30.45,NE,34,14.0,17.0,80,0.00,,,0.00,Wunderground v.1.15,2013-01-19 07:38:00,
2013-01-19 02:43:00,42.3,36.3,30.44,NNE,26,11.0,17.0,79,0.00,,,0.00,Wunderground v.1.15,2013-01-19 07:43:00,
2013-01-19 02:48:00,42.1,36.1,30.44,NE,36,14.0,18.0,79,0.00,,,0.00,Wunderground v.1.15,2013-01-19 07:48:00,
2013-01-19 02:53:00,42.2,36.2,30.44,NNE,29,15.0,15.0,79,0.00,,,0.00,Wunderground v.1.15,2013-01-19 07:53:00,
2013-01-19 02:58:00,42.2,36.2,30.44,NE,35,10.0,17.0,79,0.00,,,0.00,Wunderground v.1.15,2013-01-19 07:58:00,
2013-01-19 03:03:00,42.3,36.6,30.44,NNE,29,12.0,16.0,80,0.00,,,0.00,Wunderground v.1.15,2013-01-19 08:03:00,
2013-01-19 03:08:00,42.2,36.5,30.44,NE,34,12.0,17.0,80,0.00,,,0.00,Wunderground v.1.15,2013-01-19 08:08:00,
2013-01-19 03:13:00,42.2,36.2,30.44,NNE,30,10.0,16.0,79,0.00,,,0.00,Wunderground v.1.15,2013-01-19 08:13:00,
2013-01-19 03:18:00,42.2,36.5,30.44,NNE,28,13.0,18.0,80,0.00,,,0.00,Wunderground v.1.15,2013-01-19 08:18:00,
2013-01-19 03:23:00,42.3,36.3,30.44,NNE,32,16.0,18.0,79,0.00,,,0.00,Wunderground v.1.15,2013-01-19 08:23:00,
2013-01-19 03:28:00,42.2,36.2,30.44,NNE,28,14.0,18.0,79,0.00,,,0.00,Wunderground v.1.15,2013-01-19 08:28:00,
2013-01-19 03:33:00,42.2,36.2,30.44,NNE,26,10.0,16.0,79,0.00,,,0.00,Wunderground v.1.15,2013-01-19 08:33:00,
2013-01-19 03:38:00,42.3,36.6,30.43,NNE,25,9.0,18.0,80,0.00,,,0.00,Wunderground v.1.15,2013-01-19 08:38:00,
2013-01-19 03:43:00,42.3,36.6,30.43,NNE,19,13.0,17.0,80,0.00,,,0.00,Wunderground v.1.15,2013-01-19 08:43:00,
2013-01-19 03:48:00,42.3,36.6,30.43,NE,37,12.0,17.0,80,0.00,,,0.00,Wunderground v.1.15,2013-01-19 08:48:00,
2013-01-19 03:53:00,42.3,36.6,30.43,NNE,32,13.0,16.0,80,0.00,,,0.00,Wunderground v.1.15,2013-01-19 08:53:00,
2013-01-19 03:59:00,42.3,36.6,30.43,NNE,28,11.0,16.0,80,0.00,,,0.00,Wunderground v.1.15,2013-01-19 08:59:00,
2013-01-19 04:04:00,42.3,36.6,30.42,NE,37,12.0,17.0,80,0.00,,,0.00,Wunderground v.1.15,2013-01-19 09:04:00,
2013-01-19 04:09:00,42.4,36.7,30.43,NNE,25,10.0,17.0,80,0.00,,,0.00,Wunderground v.1.15,2013-01-19 09:09:00,
2013-01-19 04:13:00,42.5,36.8,30.43,NNE,23,11.0,16.0,80,0.00,,,0.00,Wunderground v.1.15,2013-01-19 09:13:00,
2013-01-19 04:18:00,42.4,36.7,30.43,NNE,26,11.0,17.0,80,0.00,,,0.00,Wunderground v.1.15,2013-01-19 09:18:00,
2013-01-19 04:23:00,42.5,36.8,30.43,NNE,15,13.0,15.0,80,0.00,,,0.00,Wunderground v.1.15,2013-01-19 09:23:00,
2013-01-19 04:29:00,42.5,36.8,30.43,North,5,14.0,15.0,80,0.00,,,0.00,Wunderground v.1.15,2013-01-19 09:29:00,
2013-01-19 04:33:00,42.5,36.8,30.43,NNE,25,12.0,14.0,80,0.00,,,0.00,Wunderground v.1.15,2013-01-19 09:33:00,
2013-01-19 04:38:00,42.4,36.7,30.43,NNE,13,10.0,16.0,80,0.00,,,0.00,Wunderground v.1.15,2013-01-19 09:38:00,
2013-01-19 04:43:00,42.4,37.0,30.43,NNE,21,11.0,18.0,81,0.00,,,0.00,Wunderground v.1.15,2013-01-19 09:43:00,
2013-01-19 04:48:00,42.2,36.8,30.43,NNE,19,13.0,18.0,81,0.00,,,0.00,Wunderground v.1.15,2013-01-19 09:48:00,
2013-01-19 04:53:00,42.2,36.8,30.43,NNE,13,12.0,17.0,81,0.00,,,0.00,Wunderground v.1.15,2013-01-19 09:53:00,
2013-01-19 04:59:00,42.3,36.9,30.43,North,5,13.0,17.0,81,0.00,,,0.00,Wunderground v.1.15,2013-01-19 09:59:00,
2013-01-19 05:04:00,42.3,36.9,30.43,NNE,22,13.0,15.0,81,0.00,,,0.00,Wunderground v.1.15,2013-01-19 10:04:00,
2013-01-19 05:09:00,42.2,36.8,30.43,NNE,15,11.0,15.0,81,0.00,,,0.00,Wunderground v.1.15,2013-01-19 10:09:00,
2013-01-19 05:14:00,42.3,36.9,30.43,NNE,20,15.0,15.0,81,0.00,,,0.00,Wunderground v.1.15,2013-01-19 10:14:00,
2013-01-19 05:19:00,42.3,36.9,30.43,NNE,14,10.0,16.0,81,0.00,,,0.00,Wunderground v.1.15,2013-01-19 10:19:00,
2013-01-19 05:24:00,42.3,36.9,30.43,NNE,25,15.0,17.0,81,0.00,,,0.00,Wunderground v.1.15,2013-01-19 10:24:00,
2013-01-19 05:29:00,42.2,36.8,30.43,NNE,32,13.0,17.0,81,0.00,,,0.00,Wunderground v.1.15,2013-01-19 10:29:00,
2013-01-19 05:34:00,42.3,37.2,30.43,NNE,25,13.0,15.0,82,0.00,,,0.00,Wunderground v.1.15,2013-01-19 10:34:00,
2013-01-19 05:39:00,42.3,36.9,30.43,NNE,14,17.0,18.0,81,0.00,,,0.00,Wunderground v.1.15,2013-01-19 10:39:00,
2013-01-19 05:44:00,42.4,37.3,30.43,NE,34,10.0,16.0,82,0.00,,,0.00,Wunderground v.1.15,2013-01-19 10:44:00,
2013-01-19 05:49:00,42.4,37.3,30.43,NNE,32,8.0,18.0,82,0.00,,,0.00,Wunderground v.1.15,2013-01-19 10:49:00,
2013-01-19 05:54:00,42.5,37.4,30.43,NNE,29,13.0,16.0,82,0.00,,,0.00,Wunderground v.1.15,2013-01-19 10:54:00,
2013-01-19 05:59:00,42.6,37.5,30.43,NNE,22,12.0,16.0,82,0.00,,,0.00,Wunderground v.1.15,2013-01-19 10:59:00,
2013-01-19 06:04:00,42.8,37.7,30.43,NNE,28,10.0,15.0,82,0.00,,,0.00,Wunderground v.1.15,2013-01-19 11:04:00,
2013-01-19 06:09:00,42.9,37.8,30.43,NNE,30,14.0,15.0,82,0.00,,,0.00,Wunderground v.1.15,2013-01-19 11:09:00,
2013-01-19 06:14:00,42.9,37.8,30.43,NE,36,13.0,15.0,82,0.00,,,0.00,Wunderground v.1.15,2013-01-19 11:14:00,
2013-01-19 07:48:00,43.7,39.2,30.43,NE,41,12.0,14.0,84,0.00,,,0.00,Wunderground v.1.15,2013-01-19 12:48:00,
2013-01-19 07:53:00,43.7,39.2,30.43,NE,34,8.0,14.0,84,0.00,,,0.00,Wunderground v.1.15,2013-01-19 12:53:00,
2013-01-19 07:58:00,43.8,39.6,30.43,NE,34,10.0,15.0,85,0.00,,,0.00,Wunderground v.1.15,2013-01-19 12:58:00,
2013-01-19 08:03:00,43.9,39.7,30.43,NE,36,9.0,15.0,85,0.00,,,0.00,Wunderground v.1.15,2013-01-19 13:03:00,
2013-01-19 08:08:00,44.1,39.9,30.43,NNE,31,11.0,15.0,85,0.00,,,0.00,Wunderground v.1.15,2013-01-19 13:08:00,
2013-01-19 08:13:00,44.2,40.0,30.43,NE,40,11.0,16.0,85,0.00,,,0.00,Wunderground v.1.15,2013-01-19 13:13:00,
2013-01-19 08:18:00,44.4,40.2,30.43,NE,38,11.0,16.0,85,0.00,,,0.00,Wunderground v.1.15,2013-01-19 13:18:00,
2013-01-19 08:23:00,44.5,40.0,30.43,NE,39,13.0,15.0,84,0.00,,,0.00,Wunderground v.1.15,2013-01-19 13:23:00,
2013-01-19 08:28:00,44.6,40.1,30.43,NNE,27,12.0,15.0,84,0.00,,,0.00,Wunderground v.1.15,2013-01-19 13:28:00,
2013-01-19 08:33:00,44.7,40.2,30.43,NE,39,10.0,14.0,84,0.00,,,0.00,Wunderground v.1.15,2013-01-19 13:33:00,
2013-01-19 08:38:00,44.8,40.3,30.43,NE,42,10.0,15.0,84,0.00,,,0.00,Wunderground v.1.15,2013-01-19 13:38:00,
2013-01-19 08:43:00,44.9,40.7,30.44,NE,35,8.0,13.0,85,0.00,,,0.00,Wunderground v.1.15,2013-01-19 13:43:00,
2013-01-19 08:48:00,45.1,40.9,30.44,NNE,19,8.0,13.0,85,0.00,,,0.00,Wunderground v.1.15,2013-01-19 13:48:00,
2013-01-19 08:53:00,45.0,40.5,30.44,NNE,22,9.0,12.0,84,0.00,,,0.00,Wunderground v.1.15,2013-01-19 13:53:00,
2013-01-19 08:58:00,45.1,40.6,30.44,NNE,28,10.0,13.0,84,0.00,,,0.00,Wunderground v.1.15,2013-01-19 13:58:00,
2013-01-19 09:03:00,45.2,40.7,30.44,NNE,24,9.0,12.0,84,0.00,,,0.00,Wunderground v.1.15,2013-01-19 14:03:00,
2013-01-19 09:08:00,45.2,40.7,30.44,NNE,15,11.0,13.0,84,0.00,,,0.00,Wunderground v.1.15,2013-01-19 14:08:00,
2013-01-19 09:13:00,45.2,40.7,30.44,NNE,13,10.0,12.0,84,0.00,,,0.00,Wunderground v.1.15,2013-01-19 14:13:00,
2013-01-19 09:18:00,45.3,40.7,30.45,NNE,17,7.0,12.0,84,0.00,,,0.00,Wunderground v.1.15,2013-01-19 14:18:00,
2013-01-19 09:23:00,45.3,40.7,30.45,NNE,12,10.0,13.0,84,0.00,,,0.00,Wunderground v.1.15,2013-01-19 14:23:00,
2013-01-19 09:28:00,45.3,41.1,30.45,North,11,12.0,13.0,85,0.00,,,0.00,Wunderground v.1.15,2013-01-19 14:28:00,
2013-01-19 09:33:00,45.2,41.0,30.45,North,5,11.0,13.0,85,0.00,,,0.00,Wunderground v.1.15,2013-01-19 14:33:00,
2013-01-19 09:38:00,45.0,40.8,30.45,NNE,18,11.0,13.0,85,0.00,,,0.00,Wunderground v.1.15,2013-01-19 14:38:00,
2013-01-19 09:43:00,45.1,40.9,30.45,North,9,10.0,13.0,85,0.00,,,0.00,Wunderground v.1.15,2013-01-19 14:43:00,
2013-01-19 09:48:00,45.1,40.9,30.45,NNE,21,8.0,13.0,85,0.00,,,0.00,Wunderground v.1.15,2013-01-19 14:48:00,
2013-01-19 09:53:00,45.2,41.0,30.45,NNE,13,8.0,11.0,85,0.00,,,0.00,Wunderground v.1.15,2013-01-19 14:53:00,
2013-01-19 09:58:00,45.3,41.1,30.45,NNE,13,9.0,12.0,85,0.00,,,0.00,Wunderground v.1.15,2013-01-19 14:58:00,
2013-01-19 10:03:00,45.4,41.2,30.45,NNE,16,10.0,12.0,85,0.00,,,0.00,Wunderground v.1.15,2013-01-19 15:03:00,
2013-01-19 10:08:00,45.5,41.3,30.45,NNE,17,7.0,13.0,85,0.00,,,0.00,Wunderground v.1.15,2013-01-19 15:08:00,
2013-01-19 10:13:00,45.4,41.2,30.44,North,11,10.0,13.0,85,0.00,,,0.00,Wunderground v.1.15,2013-01-19 15:13:00,
2013-01-19 10:18:00,45.6,41.4,30.44,NNE,13,11.0,13.0,85,0.00,,,0.00,Wunderground v.1.15,2013-01-19 15:18:00,
2013-01-19 10:23:00,45.6,41.4,30.44,NNE,19,8.0,13.0,85,0.00,,,0.00,Wunderground v.1.15,2013-01-19 15:23:00,
2013-01-19 10:28:00,45.6,41.4,30.44,NNE,21,10.0,14.0,85,0.00,,,0.00,Wunderground v.1.15,2013-01-19 15:28:00,
2013-01-19 10:33:00,45.7,41.4,30.44,NNE,17,9.0,12.0,85,0.00,,,0.00,Wunderground v.1.15,2013-01-19 15:33:00,
2013-01-19 10:38:00,45.7,41.4,30.43,NNE,31,8.0,12.0,85,0.00,,,0.00,Wunderground v.1.15,2013-01-19 15:38:00,
2013-01-19 10:43:00,46.0,41.7,30.43,NE,41,9.0,11.0,85,0.00,,,0.00,Wunderground v.1.15,2013-01-19 15:43:00,
2013-01-19 10:48:00,46.2,41.9,30.42,NE,35,10.0,12.0,85,0.00,,,0.00,Wunderground v.1.15,2013-01-19 15:48:00,
2013-01-19 10:53:00,46.3,41.7,30.43,NNE,33,11.0,14.0,84,0.00,,,0.00,Wunderground v.1.15,2013-01-19 15:53:00,
2013-01-19 10:58:00,46.3,41.7,30.42,NE,48,11.0,14.0,84,0.00,,,0.00,Wunderground v.1.15,2013-01-19 15:58:00,
2013-01-19 11:03:00,46.6,42.3,30.41,NE,38,9.0,10.0,85,0.00,,,0.00,Wunderground v.1.15,2013-01-19 16:03:00,
2013-01-19 11:09:00,46.9,42.6,30.42,NNE,20,7.0,11.0,85,0.00,,,0.00,Wunderground v.1.15,2013-01-19 16:09:00,
2013-01-19 11:13:00,47.0,42.4,30.41,NE,36,10.0,11.0,84,0.00,,,0.00,Wunderground v.1.15,2013-01-19 16:13:00,
2013-01-19 11:19:00,47.2,42.6,30.41,NNE,13,7.0,12.0,84,0.00,,,0.00,Wunderground v.1.15,2013-01-19 16:19:00,
2013-01-19 11:24:00,47.2,42.6,30.41,NNE,19,7.0,11.0,84,0.00,,,0.00,Wunderground v.1.15,2013-01-19 16:24:00,
2013-01-19 11:29:00,47.3,42.4,30.41,NNE,22,9.0,11.0,83,0.00,,,0.00,Wunderground v.1.15,2013-01-19 16:29:00,
2013-01-19 11:34:00,47.4,42.5,30.40,NE,34,9.0,12.0,83,0.00,,,0.00,Wunderground v.1.15,2013-01-19 16:34:00,
2013-01-19 11:39:00,47.6,42.7,30.39,NNE,32,7.0,12.0,83,0.00,,,0.00,Wunderground v.1.15,2013-01-19 16:39:00,
2013-01-19 11:44:00,47.6,42.7,30.39,NE,42,9.0,11.0,83,0.00,,,0.00,Wunderground v.1.15,2013-01-19 16:44:00,
2013-01-19 11:49:00,47.5,42.3,30.38,NE,48,6.0,11.0,82,0.00,,,0.00,Wunderground v.1.15,2013-01-19 16:49:00,
2013-01-19 11:54:00,47.6,42.7,30.38,NE,46,4.0,11.0,83,0.00,,,0.00,Wunderground v.1.15,2013-01-19 16:54:00,
2013-01-19 11:59:00,47.7,42.8,30.38,NE,43,6.0,11.0,83,0.00,,,0.00,Wunderground v.1.15,2013-01-19 16:59:00,
2013-01-19 12:04:00,47.7,42.5,30.37,NNE,26,9.0,10.0,82,0.00,,,0.00,Wunderground v.1.15,2013-01-19 17:04:00,
2013-01-19 12:09:00,47.7,42.8,30.36,NNE,17,5.0,10.0,83,0.00,,,0.00,Wunderground v.1.15,2013-01-19 17:09:00,
2013-01-19 12:14:00,47.8,42.9,30.36,North,10,6.0,8.0,83,0.00,,,0.00,Wunderground v.1.15,2013-01-19 17:14:00,
2013-01-19 12:19:00,47.7,43.1,30.36,North,9,7.0,9.0,84,0.00,,,0.00,Wunderground v.1.15,2013-01-19 17:19:00,
2013-01-19 12:24:00,47.6,42.7,30.35,North,5,7.0,10.0,83,0.00,,,0.00,Wunderground v.1.15,2013-01-19 17:24:00,
2013-01-19 12:29:00,47.6,42.7,30.35,North,360,9.0,10.0,83,0.00,,,0.00,Wunderground v.1.15,2013-01-19 17:29:00,
2013-01-19 12:34:00,47.5,42.6,30.35,North,355,9.0,10.0,83,0.00,,,0.00,Wunderground v.1.15,2013-01-19 17:34:00,
2013-01-19 12:39:00,47.4,42.2,30.35,NNW,348,7.0,10.0,82,0.00,,,0.00,Wunderground v.1.15,2013-01-19 17:39:00,
2013-01-19 12:44:00,47.4,41.9,30.34,North,349,9.0,10.0,81,0.00,,,0.00,Wunderground v.1.15,2013-01-19 17:44:00,
2013-01-19 12:50:00,47.3,41.8,30.34,North,349,7.0,10.0,81,0.00,,,0.00,Wunderground v.1.15,2013-01-19 17:50:00,
2013-01-19 12:55:00,47.5,42.0,30.33,NNW,348,7.0,8.0,81,0.00,,,0.00,Wunderground v.1.15,2013-01-19 17:55:00,
2013-01-19 13:00:00,47.5,41.6,30.33,NNW,339,7.0,7.0,80,0.00,,,0.00,Wunderground v.1.15,2013-01-19 18:00:00,
2013-01-19 13:05:00,47.5,41.6,30.33,NNW,337,9.0,10.0,80,0.00,,,0.00,Wunderground v.1.15,2013-01-19 18:05:00,
2013-01-19 13:10:00,47.5,42.0,30.33,NNW,337,6.0,7.0,81,0.00,,,0.00,Wunderground v.1.15,2013-01-19 18:10:00,
2013-01-19 13:15:00,47.6,42.1,30.33,NNW,338,5.0,7.0,81,0.00,,,0.00,Wunderground v.1.15,2013-01-19 18:15:00,
2013-01-19 13:20:00,47.8,42.3,30.33,NNW,333,2.0,5.0,81,0.00,,,0.00,Wunderground v.1.15,2013-01-19 18:20:00,
2013-01-19 13:25:00,47.8,41.6,30.32,NNW,333,6.0,7.0,79,0.00,,,0.00,Wunderground v.1.15,2013-01-19 18:25:00,
2013-01-19 13:30:00,47.7,41.5,30.32,NNW,333,7.0,8.0,79,0.00,,,0.00,Wunderground v.1.15,2013-01-19 18:30:00,
2013-01-19 13:35:00,47.7,41.5,30.32,NNW,338,7.0,10.0,79,0.00,,,0.00,Wunderground v.1.15,2013-01-19 18:35:00,
2013-01-19 13:40:00,47.9,42.0,30.32,NNW,335,10.0,10.0,80,0.00,,,0.00,Wunderground v.1.15,2013-01-19 18:40:00,
2013-01-19 13:45:00,48.1,41.9,30.31,NNW,336,6.0,10.0,79,0.00,,,0.00,Wunderground v.1.15,2013-01-19 18:45:00,
2013-01-19 13:50:00,48.3,41.8,30.31,NNW,335,5.0,7.0,78,0.00,,,0.00,Wunderground v.1.15,2013-01-19 18:50:00,
2013-01-19 13:55:00,48.4,41.9,30.31,NNW,335,6.0,7.0,78,0.00,,,0.00,Wunderground v.1.15,2013-01-19 18:55:00,
2013-01-19 14:01:00,48.6,42.0,30.30,NNW,335,6.0,6.0,78,0.00,,,0.00,Wunderground v.1.15,2013-01-19 19:01:00,
2013-01-19 14:06:00,48.8,42.2,30.30,NNW,335,6.0,7.0,78,0.00,,,0.00,Wunderground v.1.15,2013-01-19 19:06:00,
2013-01-19 14:11:00,48.9,42.0,30.30,NNW,335,5.0,6.0,77,0.00,,,0.00,Wunderground v.1.15,2013-01-19 19:11:00,
2013-01-19 14:17:00,49.2,42.3,30.29,NNW,335,6.0,6.0,77,0.00,,,0.00,Wunderground v.1.15,2013-01-19 19:17:00,
2013-01-19 14:22:00,49.3,42.1,30.29,NNW,335,5.0,7.0,76,0.00,,,0.00,Wunderground v.1.15,2013-01-19 19:22:00,
2013-01-19 14:28:00,49.5,42.2,30.29,NNW,335,5.0,7.0,76,0.00,,,0.00,Wunderground v.1.15,2013-01-19 19:28:00,
2013-01-19 14:33:00,49.7,42.8,30.29,NNW,335,4.0,5.0,77,0.00,,,0.00,Wunderground v.1.15,2013-01-19 19:33:00,
2013-01-19 14:38:00,49.9,43.0,30.29,NNW,335,5.0,6.0,77,0.00,,,0.00,Wunderground v.1.15,2013-01-19 19:38:00,
2013-01-19 14:43:00,49.9,42.6,30.29,NNW,335,6.0,6.0,76,0.00,,,0.00,Wunderground v.1.15,2013-01-19 19:43:00,
2013-01-19 14:48:00,50.1,43.2,30.29,NNW,335,5.0,6.0,77,0.00,,,0.00,Wunderground v.1.15,2013-01-19 19:48:00,
2013-01-19 14:53:00,50.3,43.7,30.28,NNW,335,4.0,5.0,78,0.00,,,0.00,Wunderground v.1.15,2013-01-19 19:53:00,
2013-01-19 14:58:00,50.4,44.1,30.28,NNW,335,4.0,5.0,79,0.00,,,0.00,Wunderground v.1.15,2013-01-19 19:58:00,
2013-01-19 15:04:00,50.5,44.2,30.28,NNW,335,2.0,5.0,79,0.00,,,0.00,Wunderground v.1.15,2013-01-19 20:04:00,
2013-01-19 15:09:00,50.5,44.2,30.28,NNW,335,2.0,5.0,79,0.00,,,0.00,Wunderground v.1.15,2013-01-19 20:09:00,
2013-01-19 15:16:00,50.3,44.4,30.28,NNW,335,3.0,5.0,80,0.00,,,0.00,Wunderground v.1.15,2013-01-19 20:16:00,
2013-01-19 15:22:00,50.3,44.4,30.27,NNW,335,2.0,3.0,80,0.00,,,0.00,Wunderground v.1.15,2013-01-19 20:22:00,
2013-01-19 15:27:00,50.5,44.6,30.27,NNW,335,1.0,3.0,80,0.00,,,0.00,Wunderground v.1.15,2013-01-19 20:27:00,
2013-01-19 15:32:00,50.6,44.7,30.27,NNW,335,2.0,2.0,80,0.00,,,0.00,Wunderground v.1.15,2013-01-19 20:32:00,
2013-01-19 15:37:00,50.7,44.8,30.27,NNW,335,1.0,3.0,80,0.00,,,0.00,Wunderground v.1.15,2013-01-19 20:37:00,
2013-01-19 15:42:00,50.8,44.9,30.26,NNW,335,1.0,3.0,80,0.00,,,0.00,Wunderground v.1.15,2013-01-19 20:42:00,
2013-01-19 15:47:00,50.9,44.9,30.27,NNW,335,3.0,3.0,80,0.00,,,0.00,Wunderground v.1.15,2013-01-19 20:47:00,
2013-01-19 15:52:00,51.0,45.0,30.27,NNW,335,2.0,4.0,80,0.00,,,0.00,Wunderground v.1.15,2013-01-19 20:52:00,
2013-01-19 15:58:00,51.3,45.3,30.27,NNW,335,3.0,4.0,80,0.00,,,0.00,Wunderground v.1.15,2013-01-19 20:58:00,
2013-01-19 16:03:00,51.4,45.4,30.27,NNW,335,3.0,4.0,80,0.00,,,0.00,Wunderground v.1.15,2013-01-19 21:03:00,
2013-01-19 16:08:00,51.6,45.6,30.26,NNW,335,0.0,4.0,80,0.00,,,0.00,Wunderground v.1.15,2013-01-19 21:08:00,
2013-01-19 16:13:00,51.7,45.7,30.26,NNW,335,3.0,4.0,80,0.00,,,0.00,Wunderground v.1.15,2013-01-19 21:13:00,
2013-01-19 16:18:00,52.0,46.3,30.26,NNW,335,0.0,4.0,81,0.00,,,0.00,Wunderground v.1.15,2013-01-19 21:18:00,
2013-01-19 16:23:00,52.2,46.2,30.26,NNW,335,0.0,2.0,80,0.00,,,0.00,Wunderground v.1.15,2013-01-19 21:23:00,
2013-01-19 16:28:00,52.2,45.9,30.26,NNW,335,0.0,3.0,79,0.00,,,0.00,Wunderground v.1.15,2013-01-19 21:28:00,
2013-01-19 16:34:00,52.1,46.1,30.26,NNW,335,0.0,2.0,80,0.00,,,0.00,Wunderground v.1.15,2013-01-19 21:34:00,
2013-01-19 16:39:00,52.2,45.9,30.25,NNW,335,2.0,3.0,79,0.00,,,0.00,Wunderground v.1.15,2013-01-19 21:39:00,
2013-01-19 16:45:00,51.9,45.9,30.25,NNW,335,0.0,2.0,80,0.00,,,0.00,Wunderground v.1.15,2013-01-19 21:45:00,
2013-01-19 16:50:00,51.8,45.8,30.25,NNW,335,2.0,2.0,80,0.00,,,0.00,Wunderground v.1.15,2013-01-19 21:50:00,
2013-01-19 16:56:00,51.6,45.6,30.25,NNW,335,0.0,2.0,80,0.00,,,0.00,Wunderground v.1.15,2013-01-19 21:56:00,
2013-01-19 17:01:00,51.5,45.9,30.25,NNW,335,0.0,1.0,81,0.00,,,0.00,Wunderground v.1.15,2013-01-19 22:01:00,
2013-01-19 17:06:00,51.5,45.9,30.25,NNW,335,0.0,1.0,81,0.00,,,0.00,Wunderground v.1.15,2013-01-19 22:06:00,
2013-01-19 17:11:00,51.3,45.7,30.25,NNW,335,0.0,0.0,81,0.00,,,0.00,Wunderground v.1.15,2013-01-19 22:11:00,
2013-01-19 17:16:00,51.1,45.5,30.25,NNW,335,0.0,0.0,81,0.00,,,0.00,Wunderground v.1.15,2013-01-19 22:16:00,
2013-01-19 17:21:00,50.8,45.5,30.24,NNW,335,0.0,0.0,82,0.00,,,0.00,Wunderground v.1.15,2013-01-19 22:21:00,
2013-01-19 17:26:00,50.5,45.2,30.25,NNW,335,0.0,0.0,82,0.00,,,0.00,Wunderground v.1.15,2013-01-19 22:26:00,
2013-01-19 17:31:00,50.1,44.8,30.24,NNW,335,0.0,0.0,82,0.00,,,0.00,Wunderground v.1.15,2013-01-19 22:31:00,
2013-01-19 17:37:00,49.7,44.7,30.24,NNW,335,0.0,0.0,83,0.00,,,0.00,Wunderground v.1.15,2013-01-19 22:37:00,
2013-01-19 17:43:00,49.4,44.8,30.24,NNW,335,0.0,2.0,84,0.00,,,0.00,Wunderground v.1.15,2013-01-19 22:43:00,
2013-01-19 17:48:00,49.2,44.9,30.25,NNW,335,0.0,2.0,85,0.00,,,0.00,Wunderground v.1.15,2013-01-19 22:48:00,
2013-01-19 17:53:00,49.0,44.7,30.24,NNW,335,0.0,0.0,85,0.00,,,0.00,Wunderground v.1.15,2013-01-19 22:53:00,
2013-01-19 17:58:00,48.8,44.8,30.24,NNW,335,0.0,0.0,86,0.00,,,0.00,Wunderground v.1.15,2013-01-19 22:58:00,
2013-01-19 18:05:00,48.5,44.5,30.24,NNW,335,0.0,0.0,86,0.00,,,0.00,Wunderground v.1.15,2013-01-19 23:05:00,
2013-01-19 18:10:00,48.3,44.6,30.24,NNW,335,0.0,0.0,87,0.00,,,0.00,Wunderground v.1.15,2013-01-19 23:10:00,
2013-01-19 18:15:00,48.1,44.4,30.24,NNW,335,0.0,0.0,87,0.00,,,0.00,Wunderground v.1.15,2013-01-19 23:15:00,
2013-01-19 18:20:00,47.9,44.5,30.24,NNW,335,0.0,0.0,88,0.00,,,0.00,Wunderground v.1.15,2013-01-19 23:20:00,
2013-01-19 18:25:00,47.8,44.4,30.24,NNW,335,0.0,0.0,88,0.00,,,0.00,Wunderground v.1.15,2013-01-19 23:25:00,
2013-01-19 18:30:00,47.6,44.2,30.24,NNW,335,0.0,0.0,88,0.00,,,0.00,Wunderground v.1.15,2013-01-19 23:30:00,
2013-01-19 18:36:00,47.4,44.0,30.24,NNW,335,0.0,0.0,88,0.00,,,0.00,Wunderground v.1.15,2013-01-19 23:36:00,
2013-01-19 18:41:00,47.2,44.1,30.24,NNW,335,0.0,0.0,89,0.00,,,0.00,Wunderground v.1.15,2013-01-19 23:41:00,
2013-01-19 18:46:00,47.4,44.6,30.24,NNW,335,1.0,3.0,90,0.00,,,0.00,Wunderground v.1.15,2013-01-19 23:46:00,
2013-01-19 18:52:00,47.9,45.1,30.24,NNW,335,0.0,1.0,90,0.00,,,0.00,Wunderground v.1.15,2013-01-19 23:52:00,
2013-01-19 18:57:00,48.1,45.3,30.24,NNW,335,0.0,1.0,90,0.00,,,0.00,Wunderground v.1.15,2013-01-19 23:57:00,
2013-01-19 19:03:00,48.1,45.3,30.24,NNW,335,0.0,0.0,90,0.00,,,0.00,Wunderground v.1.15,2013-01-20 00:03:00,
2013-01-19 19:08:00,48.1,45.3,30.24,NNW,335,0.0,0.0,90,0.00,,,0.00,Wunderground v.1.15,2013-01-20 00:08:00,
2013-01-19 19:13:00,48.2,45.4,30.24,NNW,335,0.0,2.0,90,0.00,,,0.00,Wunderground v.1.15,2013-01-20 00:13:00,
2013-01-19 19:18:00,48.2,45.4,30.24,NNW,335,0.0,2.0,90,0.00,,,0.00,Wunderground v.1.15,2013-01-20 00:18:00,
2013-01-19 19:23:00,48.2,45.4,30.24,NNW,335,1.0,1.0,90,0.00,,,0.00,Wunderground v.1.15,2013-01-20 00:23:00,
2013-01-19 19:28:00,48.0,45.2,30.24,NNW,335,1.0,2.0,90,0.00,,,0.00,Wunderground v.1.15,2013-01-20 00:28:00,
2013-01-19 19:33:00,47.9,45.4,30.25,NNW,335,0.0,0.0,91,0.00,,,0.00,Wunderground v.1.15,2013-01-20 00:33:00,
2013-01-19 19:38:00,47.8,45.3,30.24,NNW,335,0.0,1.0,91,0.00,,,0.00,Wunderground v.1.15,2013-01-20 00:38:00,
2013-01-19 19:43:00,47.8,45.0,30.24,NNW,335,0.0,0.0,90,0.00,,,0.00,Wunderground v.1.15,2013-01-20 00:43:00,
2013-01-19 19:49:00,47.7,45.2,30.24,NNW,335,0.0,0.0,91,0.00,,,0.00,Wunderground v.1.15,2013-01-20 00:49:00,
2013-01-19 19:54:00,47.7,45.2,30.24,NNW,335,0.0,0.0,91,0.00,,,0.00,Wunderground v.1.15,2013-01-20 00:54:00,
2013-01-19 19:59:00,47.8,45.3,30.24,NNW,335,2.0,3.0,91,0.00,,,0.00,Wunderground v.1.15,2013-01-20 00:59:00,
2013-01-19 20:04:00,48.1,45.6,30.24,NNW,335,0.0,2.0,91,0.00,,,0.00,Wunderground v.1.15,2013-01-20 01:04:00,
2013-01-19 20:09:00,48.2,47.1,30.24,NNW,335,4.0,4.0,96,0.00,,,0.00,Wunderground v.1.15,2013-01-20 01:09:00,
2013-01-19 20:14:00,48.5,46.3,30.24,NNW,335,3.0,5.0,92,0.00,,,0.00,Wunderground v.1.15,2013-01-20 01:14:00,
2013-01-19 20:19:00,48.7,46.5,30.23,NNW,335,3.0,5.0,92,0.00,,,0.00,Wunderground v.1.15,2013-01-20 01:19:00,
2013-01-19 20:25:00,48.8,46.6,30.23,NNW,335,1.0,4.0,92,0.00,,,0.00,Wunderground v.1.15,2013-01-20 01:25:00,
2013-01-19 20:30:00,48.8,46.6,30.23,NNW,335,1.0,4.0,92,0.00,,,0.00,Wunderground v.1.15,2013-01-20 01:30:00,
2013-01-19 20:35:00,48.9,46.7,30.23,NNW,335,2.0,2.0,92,0.00,,,0.00,Wunderground v.1.15,2013-01-20 01:35:00,
2013-01-19 20:40:00,49.0,46.8,30.23,NNW,335,0.0,2.0,92,0.00,,,0.00,Wunderground v.1.15,2013-01-20 01:40:00,
2013-01-19 20:45:00,49.1,46.9,30.22,NNW,335,2.0,2.0,92,0.00,,,0.00,Wunderground v.1.15,2013-01-20 01:45:00,
2013-01-19 20:50:00,49.3,47.1,30.22,NNW,335,0.0,1.0,92,0.00,,,0.00,Wunderground v.1.15,2013-01-20 01:50:00,
2013-01-19 20:56:00,49.3,47.1,30.22,NNW,335,0.0,1.0,92,0.00,,,0.00,Wunderground v.1.15,2013-01-20 01:56:00,
2013-01-19 21:01:00,49.2,47.0,30.22,NNW,335,0.0,0.0,92,0.00,,,0.00,Wunderground v.1.15,2013-01-20 02:01:00,
2013-01-19 21:07:00,49.0,46.8,30.22,NNW,335,0.0,0.0,92,0.00,,,0.00,Wunderground v.1.15,2013-01-20 02:07:00,
2013-01-19 21:13:00,49.0,46.8,30.22,NNW,335,2.0,3.0,92,0.00,,,0.00,Wunderground v.1.15,2013-01-20 02:13:00,
2013-01-19 21:18:00,49.2,47.0,30.21,NNW,335,1.0,3.0,92,0.00,,,0.00,Wunderground v.1.15,2013-01-20 02:18:00,
2013-01-19 21:23:00,49.2,47.0,30.22,NNW,335,0.0,1.0,92,0.00,,,0.00,Wunderground v.1.15,2013-01-20 02:23:00,
2013-01-19 21:28:00,49.2,47.3,30.21,NNW,335,2.0,3.0,93,0.00,,,0.00,Wunderground v.1.15,2013-01-20 02:28:00,
2013-01-19 21:33:00,49.4,47.2,30.21,NNW,335,0.0,2.0,92,0.00,,,0.00,Wunderground v.1.15,2013-01-20 02:33:00,
2013-01-19 21:38:00,49.2,47.0,30.21,NNW,335,1.0,2.0,92,0.00,,,0.00,Wunderground v.1.15,2013-01-20 02:38:00,
2013-01-19 21:43:00,49.3,47.4,30.21,NNW,335,3.0,3.0,93,0.00,,,0.00,Wunderground v.1.15,2013-01-20 02:43:00,
2013-01-19 21:48:00,49.6,47.7,30.21,NNW,335,3.0,4.0,93,0.00,,,0.00,Wunderground v.1.15,2013-01-20 02:48:00,
2013-01-19 21:54:00,49.7,47.8,30.20,NNW,335,1.0,3.0,93,0.00,,,0.00,Wunderground v.1.15,2013-01-20 02:54:00,
2013-01-19 21:59:00,49.8,47.9,30.19,NNW,335,0.0,3.0,93,0.00,,,0.00,Wunderground v.1.15,2013-01-20 02:59:00,
2013-01-19 22:04:00,49.9,48.0,30.20,NNW,335,0.0,2.0,93,0.00,,,0.00,Wunderground v.1.15,2013-01-20 03:04:00,
2013-01-19 22:09:00,50.1,48.2,30.20,NNW,335,3.0,4.0,93,0.00,,,0.00,Wunderground v.1.15,2013-01-20 03:09:00,
2013-01-19 22:14:00,50.1,48.2,30.20,NNW,335,2.0,4.0,93,0.00,,,0.00,Wunderground v.1.15,2013-01-20 03:14:00,
2013-01-19 22:19:00,50.0,48.1,30.19,NNW,335,1.0,4.0,93,0.00,,,0.00,Wunderground v.1.15,2013-01-20 03:19:00,
2013-01-19 22:24:00,49.8,47.9,30.19,NNW,335,0.0,2.0,93,0.00,,,0.00,Wunderground v.1.15,2013-01-20 03:24:00,
2013-01-19 22:29:00,49.7,47.5,30.19,NNW,335,0.0,2.0,92,0.00,,,0.00,Wunderground v.1.15,2013-01-20 03:29:00,
2013-01-19 22:34:00,49.6,47.4,30.19,NNW,335,0.0,1.0,92,0.00,,,0.00,Wunderground v.1.15,2013-01-20 03:34:00,
2013-01-19 22:39:00,49.8,47.9,30.19,NNW,335,1.0,6.0,93,0.00,,,0.00,Wunderground v.1.15,2013-01-20 03:39:00,
2013-01-19 22:44:00,50.0,47.8,30.18,NNW,335,0.0,1.0,92,0.00,,,0.00,Wunderground v.1.15,2013-01-20 03:44:00,
2013-01-19 22:49:00,50.1,47.9,30.18,NNW,335,0.0,1.0,92,0.00,,,0.00,Wunderground v.1.15,2013-01-20 03:49:00,
2013-01-19 22:54:00,50.1,47.9,30.18,NNW,335,0.0,0.0,92,0.00,,,0.00,Wunderground v.1.15,2013-01-20 03:54:00,
2013-01-19 22:59:00,50.2,48.0,30.18,NNW,335,0.0,0.0,92,0.00,,,0.00,Wunderground v.1.15,2013-01-20 03:59:00,
2013-01-19 23:04:00,50.3,48.1,30.17,NNW,335,0.0,1.0,92,0.00,,,0.00,Wunderground v.1.15,2013-01-20 04:04:00,
2013-01-19 23:09:00,50.3,48.1,30.17,NNW,335,0.0,1.0,92,0.00,,,0.00,Wunderground v.1.15,2013-01-20 04:09:00,
2013-01-19 23:14:00,50.3,47.8,30.17,NNW,335,0.0,0.0,91,0.00,,,0.00,Wunderground v.1.15,2013-01-20 04:14:00,
2013-01-19 23:20:00,50.3,47.8,30.16,NNW,335,0.0,0.0,91,0.00,,,0.00,Wunderground v.1.15,2013-01-20 04:20:00,
2013-01-19 23:25:00,50.1,47.6,30.16,NNW,335,0.0,0.0,91,0.00,,,0.00,Wunderground v.1.15,2013-01-20 04:25:00,
2013-01-19 23:30:00,50.2,47.7,30.16,NNW,335,1.0,1.0,91,0.00,,,0.00,Wunderground v.1.15,2013-01-20 04:30:00,
2013-01-19 23:35:00,50.3,47.5,30.16,NNW,335,0.0,1.0,90,0.00,,,0.00,Wunderground v.1.15,2013-01-20 04:35:00,
2013-01-19 23:40:00,50.3,47.5,30.16,NNW,335,0.0,0.0,90,0.00,,,0.00,Wunderground v.1.15,2013-01-20 04:40:00,
2013-01-19 23:45:00,50.3,47.5,30.15,NNW,335,0.0,0.0,90,0.00,,,0.00,Wunderground v.1.15,2013-01-20 04:45:00,
2013-01-19 23:50:00,50.5,47.7,30.15,NNW,335,0.0,0.0,90,0.00,,,0.00,Wunderground v.1.15,2013-01-20 04:50:00,
2013-01-19 23:56:00,50.4,47.3,30.15,NNW,335,0.0,0.0,89,0.00,,,0.00,Wunderground v.1.15,2013-01-20 04:56:00,